EW5897 Weather Reports


time (UTC)temp
C
wind
direction
speed
KPH
gust
KPH
rain 1hr
cm
rain 24hr
cm
rain mn
cm
humidity
%
barometer
mb
20260504035402 4 351 25.7 41.8 0.00 0.00 0.00 71 1000.0
20260504033412 5 346 29.0 45.1 0.00 0.00 0.00 70 999.3
20260504031414 6 329 29.0 45.1 0.00 0.00 0.00 68 999.3
20260504025853 6 327 29.0 46.7 0.00 0.00 0.00 66 999.3
20260504023901 7 322 32.2 56.3 0.00 0.00 0.00 63 998.9
20260504022359 8 248 37.0 62.8 0.00 0.00 0.00 59 998.9
20260504020415 9 259 37.0 53.1 0.00 0.00 0.00 58 998.4
20260504014902 10 290 29.0 48.3 0.00 0.00 0.00 57 998.1
20260504012901 11 263 27.4 48.3 0.00 0.00 0.00 46 997.3
20260504010855 11 258 20.9 35.4 0.00 0.00 0.00 53 997.2
20260504005353 11 267 14.5 25.7 0.00 0.00 0.00 58 997.1
20260504003409 11 250 17.7 29.0 0.00 0.00 0.00 62 996.9
20260504001905 10 232 14.5 24.1 0.00 0.00 0.00 70 997.1
20260503235400 10 221 16.1 33.8 0.00 0.00 0.00 74 997.4
20260503233404 11 265 37.0 51.5 0.00 0.00 0.00 66 998.3
20260503231402 13 267 32.2 57.9 0.00 0.00 0.00 49 997.3
20260503225856 14 252 29.0 57.9 0.00 0.00 0.00 50 996.7
20260503223914 15 264 37.0 53.1 0.00 0.00 0.00 53 996.4
20260503222343 14 246 27.4 49.9 0.00 0.00 0.00 56 995.9
20260503220349 18 233 29.0 48.3 0.00 0.00 0.00 38 995.0
20260503214850 18 234 29.0 41.8 0.00 0.00 0.00 38 995.2
20260503212858 19 225 30.6 45.1 0.00 0.00 0.00 36 995.5
20260503210902 18 245 30.6 38.6 0.00 0.00 0.00 38 996.2
20260503204914 18 244 24.1 35.4 0.00 0.00 0.00 38 996.8
20260503202913 17 234 25.7 43.5 0.00 0.00 0.00 39 997.2
20260503200914 18 235 35.4 48.3 0.00 0.00 0.00 36 997.4
20260503195358 18 238 35.4 46.7 0.00 0.00 0.00 36 997.7
20260503193401 18 242 32.2 45.1 0.00 0.00 0.00 36 998.0
20260503191408 18 240 30.6 53.1 0.00 0.00 0.00 36 998.2
20260503185859 19 264 35.4 46.7 0.00 0.00 0.00 35 998.3
20260503183914 19 244 35.4 45.1 0.00 0.00 0.00 36 998.5
20260503181913 18 227 35.4 48.3 0.00 0.00 0.00 39 998.5
20260503180357 19 236 35.4 54.7 0.00 0.00 0.00 38 998.8
20260503174433 19 227 38.6 49.9 0.00 0.00 0.00 40 999.0
20260503172930 18 225 35.4 51.5 0.00 0.00 0.00 44 999.1
20260503171357 18 221 40.2 61.2 0.00 0.00 0.00 44 999.0
20260503130908 6 222 12.9 16.1 0.00 0.00 0.00 77 1004.9
20260503080852 1 184 1.6 3.2 0.00 0.00 0.00 90 1008.3
20260503071853 1 184 0.0 3.2 0.00 0.00 0.00 90 1008.8
20260503070203 1 184 1.6 4.8 0.00 0.00 0.00 89 1008.9
20260503054904 3 145 0.0 0.0 0.00 0.00 0.00 84 1009.4
20260503052901 4 145 0.0 0.0 0.00 0.00 0.00 81 1009.6
20260503051401 5 145 0.0 0.0 0.00 0.00 0.00 76 1009.6
20260503045413 5 145 0.0 3.2 0.00 0.00 0.00 75 1009.6
20260503043859 3 144 0.0 3.2 0.00 0.00 0.00 80 1009.6
20260503041857 4 144 0.0 3.2 0.00 0.00 0.00 76 1009.7
20260503040356 5 144 0.0 0.0 0.00 0.00 0.00 72 1009.7